| time (UTC) | temp F | wind direction | speed MPH | gust MPH | rain 1hr in | rain 24hr in | rain mn in | humidity % | barometer mb |
| 20260504222136 | 55 | 115 | 1.0 | 4.0 | 0.00 | 0.00 | 0.00 | 66 | 1001.6 |
| 20260504221634 | 56 | 76 | 4.0 | 4.0 | 0.00 | 0.00 | 0.00 | 65 | 1001.8 |
| 20260504221131 | 56 | 238 | 1.0 | 4.0 | 0.00 | 0.00 | 0.00 | 65 | 1001.5 |
| 20260504220627 | 56 | 166 | 2.0 | 3.0 | 0.00 | 0.00 | 0.00 | 65 | 1001.6 |
| 20260504220125 | 56 | 151 | 1.0 | 2.0 | 0.00 | 0.00 | 0.00 | 66 | 1001.8 |
| 20260504215620 | 56 | 114 | 3.0 | 6.0 | 0.00 | 0.00 | 0.00 | 66 | 1001.6 |
| 20260504215118 | 55 | 148 | 4.0 | 4.0 | 0.00 | 0.00 | 0.00 | 68 | 1001.5 |
| 20260504214614 | 56 | 180 | 4.0 | 6.0 | 0.00 | 0.00 | 0.00 | 67 | 1001.6 |
| 20260504214110 | 56 | 213 | 4.0 | 6.0 | 0.00 | 0.00 | 0.00 | 66 | 1001.5 |
| 20260504213607 | 59 | 119 | 7.0 | 9.0 | 0.00 | 0.00 | 0.00 | 61 | 1001.3 |
| 20260504213104 | 60 | 255 | 4.0 | 7.0 | 0.00 | 0.00 | 0.00 | 58 | 1001.5 |
| 20260504212600 | 62 | 179 | 1.0 | 4.0 | 0.00 | 0.00 | 0.00 | 55 | 1001.1 |
| 20260504212057 | 62 | 335 | 1.0 | 8.0 | 0.00 | 0.00 | 0.00 | 54 | 1001.2 |
| 20260504211554 | 62 | 44 | 3.0 | 3.0 | 0.00 | 0.00 | 0.00 | 55 | 1001.3 |
| 20260504211051 | 62 | 215 | 6.0 | 9.0 | 0.00 | 0.00 | 0.00 | 52 | 1001.5 |
| 20260504210548 | 62 | 341 | 1.0 | 3.0 | 0.00 | 0.00 | 0.00 | 54 | 1001.1 |
| 20260504210045 | 62 | 61 | 1.0 | 3.0 | 0.00 | 0.00 | 0.00 | 54 | 1001.2 |
| 20260504205543 | 62 | 250 | 4.0 | 9.0 | 0.00 | 0.00 | 0.00 | 54 | 1001.2 |
| 20260504205040 | 62 | 255 | 1.0 | 8.0 | 0.00 | 0.00 | 0.00 | 54 | 1001.1 |
| 20260504204538 | 62 | 319 | 2.0 | 8.0 | 0.00 | 0.00 | 0.00 | 53 | 1001.1 |
| 20260504204037 | 62 | 307 | 4.0 | 8.0 | 0.00 | 0.00 | 0.00 | 54 | 1001.0 |
| 20260504203534 | 62 | 38 | 3.0 | 7.0 | 0.00 | 0.00 | 0.00 | 54 | 1001.4 |
| 20260504203032 | 62 | 74 | 1.0 | 3.0 | 0.00 | 0.00 | 0.00 | 54 | 1001.3 |
| 20260504202527 | 62 | 275 | 4.0 | 6.0 | 0.00 | 0.00 | 0.00 | 54 | 1001.2 |
| 20260504202024 | 61 | 11 | 2.0 | 3.0 | 0.00 | 0.00 | 0.00 | 54 | 1001.2 |
| 20260504201521 | 62 | 309 | 2.0 | 8.0 | 0.00 | 0.00 | 0.00 | 53 | 1001.3 |
| 20260504201019 | 60 | 218 | 2.0 | 11.0 | 0.00 | 0.00 | 0.00 | 55 | 1001.3 |
| 20260504200515 | 61 | 108 | 2.0 | 4.0 | 0.00 | 0.00 | 0.00 | 56 | 1001.4 |
| 20260504200012 | 60 | 284 | 2.0 | 6.0 | 0.00 | 0.00 | 0.00 | 58 | 1001.5 |
| 20260504195508 | 60 | 222 | 7.0 | 9.0 | 0.00 | 0.00 | 0.00 | 58 | 1001.1 |
| 20260504195005 | 60 | 14 | 3.0 | 8.0 | 0.00 | 0.00 | 0.00 | 57 | 1001.5 |
| 20260504194501 | 60 | 310 | 1.0 | 4.0 | 0.00 | 0.00 | 0.00 | 59 | 1001.5 |
| 20260504193957 | 60 | 349 | 4.0 | 7.0 | 0.00 | 0.00 | 0.00 | 59 | 1001.3 |
| 20260504193454 | 59 | 138 | 3.0 | 9.0 | 0.00 | 0.00 | 0.00 | 60 | 1001.3 |
| 20260504192953 | 58 | 259 | 2.0 | 6.0 | 0.00 | 0.00 | 0.00 | 61 | 1001.5 |
| 20260504192449 | 57 | 149 | 3.0 | 4.0 | 0.00 | 0.00 | 0.00 | 63 | 1001.7 |
| 20260504191949 | 55 | 144 | 2.0 | 4.0 | 0.00 | 0.00 | 0.00 | 65 | 1001.4 |
| 20260504191446 | 55 | 184 | 3.0 | 6.0 | 0.00 | 0.00 | 0.00 | 65 | 1001.6 |
| 20260504190941 | 55 | 124 | 1.0 | 7.0 | 0.00 | 0.00 | 0.00 | 67 | 1001.7 |
| 20260504190437 | 54 | 109 | 2.0 | 3.0 | 0.00 | 0.00 | 0.00 | 71 | 1001.9 |
| 20260504185934 | 53 | 221 | 0.0 | 7.0 | 0.00 | 0.00 | 0.00 | 69 | 1001.9 |
| 20260504185431 | 53 | 292 | 2.0 | 4.0 | 0.00 | 0.00 | 0.00 | 71 | 1002.2 |
| 20260504184927 | 53 | 135 | 2.0 | 4.0 | 0.00 | 0.00 | 0.00 | 72 | 1002.2 |
| 20260504184423 | 52 | 155 | 1.0 | 3.0 | 0.00 | 0.00 | 0.00 | 74 | 1002.2 |
| 20260504183919 | 51 | 146 | 2.0 | 7.0 | 0.00 | 0.00 | 0.00 | 73 | 1002.1 |
| 20260504183417 | 51 | 159 | 0.0 | 3.0 | 0.00 | 0.00 | 0.00 | 73 | 1002.4 |
| 20260504182915 | 52 | 257 | 9.0 | 11.0 | 0.00 | 0.00 | 0.00 | 70 | 1002.1 |
| 20260504182411 | 52 | 65 | 2.0 | 6.0 | 0.00 | 0.00 | 0.00 | 72 | 1002.0 |
| 20260504181908 | 52 | 190 | 8.0 | 10.0 | 0.00 | 0.00 | 0.00 | 68 | 1002.0 |
| 20260504181405 | 52 | 125 | 4.0 | 9.0 | 0.00 | 0.00 | 0.00 | 68 | 1002.0 |
| 20260504180904 | 52 | 97 | 3.0 | 8.0 | 0.00 | 0.00 | 0.00 | 67 | 1002.0 |
| 20260504180402 | 52 | 201 | 4.0 | 9.0 | 0.00 | 0.00 | 0.00 | 66 | 1001.8 |
| 20260504175900 | 53 | 228 | 5.0 | 10.0 | 0.00 | 0.00 | 0.00 | 65 | 1001.9 |
| 20260504175356 | 53 | 204 | 5.0 | 9.0 | 0.00 | 0.00 | 0.00 | 65 | 1001.9 |
| 20260504174855 | 53 | 188 | 4.0 | 9.0 | 0.00 | 0.00 | 0.00 | 60 | 1001.5 |
| 20260504174352 | 54 | 207 | 5.0 | 13.0 | 0.00 | 0.00 | 0.00 | 57 | 1001.8 |
| 20260504173849 | 55 | 234 | 4.0 | 9.0 | 0.00 | 0.00 | 0.00 | 55 | 1001.2 |
| 20260504173345 | 55 | 118 | 6.0 | 8.0 | 0.00 | 0.00 | 0.00 | 53 | 1001.1 |
| 20260504172842 | 56 | 181 | 5.0 | 8.0 | 0.00 | 0.00 | 0.00 | 54 | 1001.2 |
| 20260504172339 | 57 | 153 | 5.0 | 8.0 | 0.00 | 0.00 | 0.00 | 51 | 1001.0 |
| 20260504171835 | 57 | 206 | 4.0 | 6.0 | 0.00 | 0.00 | 0.00 | 51 | 1001.1 |
| 20260504171332 | 57 | 119 | 3.0 | 10.0 | 0.00 | 0.00 | 0.00 | 50 | 1001.2 |
| 20260504170830 | 56 | 198 | 1.0 | 9.0 | 0.00 | 0.00 | 0.00 | 52 | 1001.2 |
| 20260504170326 | 56 | 122 | 6.0 | 10.0 | 0.00 | 0.00 | 0.00 | 45 | 1001.3 |
| 20260504160244 | 56 | 188 | 6.0 | 15.0 | 0.00 | 0.00 | 0.00 | 54 | 1001.5 |
| 20260504150710 | 59 | 169 | 5.0 | 7.0 | 0.00 | 0.00 | 0.00 | 42 | 1002.3 |
| 20260504150207 | 59 | 295 | 2.0 | 7.0 | 0.00 | 0.00 | 0.00 | 44 | 1002.4 |
| 20260504141136 | 56 | 280 | 2.0 | 8.0 | 0.00 | 0.00 | 0.00 | 45 | 1003.2 |
| 20260504140632 | 56 | 123 | 2.0 | 9.0 | 0.00 | 0.00 | 0.00 | 47 | 1002.9 |
| 20260504140128 | 55 | 166 | 2.0 | 6.0 | 0.00 | 0.00 | 0.00 | 49 | 1003.0 |
| 20260504130556 | 51 | 262 | 4.0 | 7.0 | 0.00 | 0.00 | 0.00 | 55 | 1003.8 |
| 20260504110444 | 40 | 291 | 2.0 | 3.0 | 0.00 | 0.00 | 0.00 | 75 | 1004.0 |
| 20260504100407 | 36 | 334 | 1.0 | 3.0 | 0.00 | 0.00 | 0.00 | 81 | 1003.5 |
| 20260504081800 | 36 | 328 | 2.0 | 3.0 | 0.00 | 0.00 | 0.00 | 85 | 1002.2 |
| 20260504081256 | 36 | 142 | 1.0 | 2.0 | 0.00 | 0.00 | 0.00 | 85 | 1002.2 |
| 20260504080753 | 36 | 250 | 3.0 | 3.0 | 0.00 | 0.00 | 0.00 | 85 | 1002.2 |
| 20260504080249 | 36 | 69 | 0.0 | 0.0 | 0.00 | 0.00 | 0.00 | 85 | 1002.4 |
| 20260504070217 | 38 | 332 | 1.0 | 3.0 | 0.00 | 0.00 | 0.00 | 82 | 1001.3 |
| 20260504060137 | 39 | 332 | 2.0 | 6.0 | 0.00 | 0.00 | 0.00 | 83 | 1000.6 |
| 20260504050605 | 41 | 318 | 3.0 | 9.0 | 0.00 | 0.00 | 0.00 | 82 | 1000.1 |
| 20260504045559 | 41 | 300 | 4.0 | 7.0 | 0.00 | 0.00 | 0.00 | 85 | 1000.3 |
| 20260504045054 | 42 | 117 | 2.0 | 10.0 | 0.00 | 0.00 | 0.00 | 84 | 1000.3 |
| 20260504044552 | 42 | 291 | 4.0 | 9.0 | 0.00 | 0.00 | 0.00 | 85 | 1000.4 |
| 20260504044049 | 42 | 300 | 6.0 | 9.0 | 0.00 | 0.00 | 0.00 | 85 | 1000.3 |
| 20260504043546 | 42 | 293 | 4.0 | 7.0 | 0.00 | 0.00 | 0.00 | 85 | 1000.2 |
| 20260504043043 | 42 | 335 | 3.0 | 8.0 | 0.00 | 0.00 | 0.00 | 86 | 1000.1 |
| 20260504042540 | 42 | 315 | 3.0 | 13.0 | 0.00 | 0.00 | 0.00 | 86 | 999.9 |
| 20260504042037 | 42 | 321 | 4.0 | 7.0 | 0.00 | 0.00 | 0.00 | 86 | 999.9 |
| 20260504041533 | 42 | 329 | 6.0 | 13.0 | 0.00 | 0.00 | 0.00 | 86 | 999.6 |
| 20260504041029 | 42 | 316 | 10.0 | 11.0 | 0.00 | 0.00 | 0.00 | 88 | 999.6 |
| 20260504040527 | 42 | 336 | 4.0 | 9.0 | 0.00 | 0.00 | 0.00 | 88 | 999.6 |
| 20260504040023 | 42 | 19 | 6.0 | 8.0 | 0.00 | 0.00 | 0.00 | 88 | 999.6 |
| 20260504035520 | 42 | 332 | 2.0 | 7.0 | 0.00 | 1.05 | 1.05 | 89 | 999.5 |
| 20260504035016 | 42 | 319 | 5.0 | 9.0 | 0.00 | 1.05 | 1.05 | 89 | 999.5 |
| 20260504034514 | 42 | 354 | 6.0 | 10.0 | 0.00 | 1.05 | 1.05 | 90 | 999.4 |
| 20260504034011 | 42 | 28 | 2.0 | 8.0 | 0.00 | 1.05 | 1.05 | 90 | 999.4 |
| 20260504033509 | 43 | 343 | 3.0 | 11.0 | 0.00 | 1.05 | 1.05 | 90 | 999.5 |
| 20260504033006 | 43 | 318 | 4.0 | 15.0 | 0.00 | 1.05 | 1.05 | 91 | 999.2 |
| 20260504032503 | 43 | 328 | 2.0 | 8.0 | 0.00 | 1.05 | 1.05 | 93 | 999.6 |
| 20260504031959 | 43 | 4 | 4.0 | 10.0 | 0.00 | 1.05 | 1.05 | 93 | 999.5 |
| 20260504031456 | 43 | 289 | 5.0 | 6.0 | 0.00 | 1.05 | 1.05 | 94 | 999.3 |
| 20260504030953 | 43 | 353 | 8.0 | 11.0 | 0.00 | 1.05 | 1.05 | 94 | 999.3 |
| 20260504030450 | 42 | 336 | 4.0 | 7.0 | 0.00 | 1.05 | 1.05 | 94 | 999.2 |
| 20260504025946 | 42 | 344 | 2.0 | 7.0 | 0.00 | 1.05 | 1.05 | 94 | 999.2 |
| 20260504025443 | 42 | 252 | 3.0 | 7.0 | 0.00 | 1.05 | 1.05 | 94 | 999.0 |
| 20260504024940 | 42 | 269 | 3.0 | 7.0 | 0.00 | 1.05 | 1.05 | 94 | 999.0 |
| 20260504024437 | 42 | 328 | 4.0 | 7.0 | 0.00 | 1.05 | 1.05 | 94 | 998.9 |
| 20260504023934 | 42 | 340 | 3.0 | 7.0 | 0.00 | 1.05 | 1.05 | 94 | 999.1 |
| 20260504023430 | 42 | 293 | 4.0 | 7.0 | 0.00 | 1.05 | 1.05 | 94 | 998.9 |
| 20260504022926 | 42 | 1 | 6.0 | 8.0 | 0.00 | 1.05 | 1.05 | 94 | 998.9 |
| 20260504022423 | 42 | 336 | 4.0 | 8.0 | 0.00 | 1.05 | 1.05 | 94 | 998.9 |
| 20260504021920 | 42 | 319 | 3.0 | 4.0 | 0.00 | 1.05 | 1.05 | 94 | 998.7 |
| 20260504021417 | 42 | 288 | 9.0 | 14.0 | 0.00 | 1.05 | 1.05 | 94 | 998.8 |
| 20260504020914 | 42 | 342 | 3.0 | 9.0 | 0.00 | 1.05 | 1.05 | 94 | 998.8 |
| 20260504020410 | 42 | 12 | 2.0 | 3.0 | 0.00 | 1.05 | 1.05 | 94 | 998.6 |
| 20260504015907 | 42 | 319 | 2.0 | 7.0 | 0.00 | 1.05 | 1.05 | 94 | 998.9 |
| 20260504015403 | 42 | 325 | 5.0 | 8.0 | 0.00 | 1.05 | 1.05 | 94 | 998.8 |
| 20260504014859 | 42 | 302 | 4.0 | 13.0 | 0.00 | 1.05 | 1.05 | 94 | 998.6 |
| 20260504014355 | 42 | 3 | 9.0 | 10.0 | 0.00 | 1.05 | 1.05 | 95 | 998.6 |
| 20260504013853 | 42 | 359 | 7.0 | 10.0 | 0.00 | 1.05 | 1.05 | 95 | 998.5 |
| 20260504013351 | 42 | 299 | 5.0 | 9.0 | 0.05 | 1.05 | 1.05 | 95 | 998.4 |
| 20260504012847 | 42 | 324 | 3.0 | 9.0 | 0.05 | 1.05 | 1.05 | 95 | 998.4 |
| 20260504012345 | 42 | 356 | 5.0 | 10.0 | 0.00 | 1.04 | 1.04 | 95 | 998.5 |
| 20260504011842 | 42 | 326 | 5.0 | 10.0 | 0.00 | 1.04 | 1.04 | 95 | 998.2 |
| 20260504011338 | 42 | 353 | 8.0 | 10.0 | 0.00 | 1.04 | 1.04 | 95 | 998.3 |
| 20260504010835 | 42 | 347 | 6.0 | 8.0 | 0.00 | 1.04 | 1.04 | 95 | 998.0 |
| 20260504010330 | 42 | 38 | 5.0 | 10.0 | 0.00 | 1.04 | 1.04 | 95 | 998.1 |
| 20260504005827 | 42 | 335 | 7.0 | 13.0 | 0.00 | 1.04 | 1.04 | 95 | 998.0 |
| 20260504005324 | 42 | 296 | 7.0 | 11.0 | 0.00 | 1.04 | 1.04 | 95 | 997.9 |
| 20260504004821 | 42 | 344 | 8.0 | 11.0 | 0.00 | 1.04 | 1.04 | 95 | 997.8 |
| 20260504004319 | 42 | 276 | 6.0 | 13.0 | 0.00 | 1.04 | 1.04 | 95 | 997.6 |
| 20260504003815 | 42 | 300 | 6.0 | 9.0 | 0.00 | 1.04 | 1.04 | 95 | 997.6 |
| 20260504003312 | 42 | 357 | 2.0 | 10.0 | 0.00 | 1.04 | 1.04 | 95 | 997.5 |
| 20260504002809 | 42 | 305 | 5.0 | 10.0 | 0.00 | 1.04 | 1.04 | 95 | 997.5 |
| 20260504002306 | 42 | 101 | 6.0 | 11.0 | 0.00 | 1.04 | 1.04 | 95 | 997.3 |
| 20260504001803 | 42 | 310 | 8.0 | 18.0 | 0.00 | 1.04 | 1.04 | 95 | 997.3 |
| 20260504001300 | 42 | 329 | 6.0 | 13.0 | 0.00 | 1.04 | 1.04 | 96 | 997.2 |
| 20260504000757 | 42 | 332 | 6.0 | 14.0 | 0.00 | 1.04 | 1.04 | 96 | 997.1 |
| 20260504000254 | 42 | 332 | 5.0 | 11.0 | 0.00 | 1.04 | 1.04 | 96 | 997.3 |
| 20260503235752 | 42 | 115 | 6.0 | 9.0 | 0.00 | 1.04 | 1.04 | 96 | 997.0 |
| 20260503235249 | 42 | 339 | 5.0 | 14.0 | 0.00 | 1.04 | 1.04 | 96 | 997.0 |
| 20260503234747 | 41 | 331 | 5.0 | 13.0 | 0.00 | 1.04 | 1.04 | 96 | 996.8 |
| 20260503234245 | 41 | 334 | 5.0 | 11.0 | 0.00 | 1.04 | 1.04 | 96 | 996.8 |
| 20260503233741 | 41 | 318 | 2.0 | 9.0 | 0.00 | 1.04 | 1.04 | 96 | 996.9 |
| 20260503233237 | 41 | 323 | 5.0 | 11.0 | 0.00 | 1.04 | 1.04 | 96 | 996.5 |
| 20260503232734 | 42 | 14 | 4.0 | 9.0 | 0.00 | 1.04 | 1.04 | 96 | 996.7 |
| 20260503232232 | 42 | 359 | 10.0 | 13.0 | 0.00 | 1.04 | 1.04 | 96 | 996.7 |
| 20260503231730 | 42 | 42 | 6.0 | 14.0 | 0.00 | 1.04 | 1.04 | 96 | 996.5 |
| 20260503231226 | 41 | 359 | 6.0 | 16.0 | 0.00 | 1.04 | 1.04 | 96 | 996.6 |
| 20260503230722 | 41 | 314 | 10.0 | 17.0 | 0.07 | 1.04 | 1.04 | 96 | 996.5 |
| 20260503230220 | 41 | 316 | 7.0 | 14.0 | 0.07 | 1.04 | 1.04 | 96 | 996.5 |
| 20260503225717 | 41 | 0 | 8.0 | 13.0 | 0.00 | 1.03 | 1.03 | 96 | 996.3 |
| 20260503225217 | 41 | 339 | 8.0 | 10.0 | 0.00 | 1.03 | 1.03 | 96 | 996.5 |
| 20260503224715 | 41 | 332 | 7.0 | 17.0 | 0.00 | 1.03 | 1.03 | 96 | 996.4 |
| 20260503224212 | 41 | 312 | 9.0 | 14.0 | 0.00 | 1.03 | 1.03 | 96 | 996.0 |
| 20260503223710 | 42 | 314 | 7.0 | 11.0 | 0.00 | 1.03 | 1.03 | 96 | 996.0 |
| 20260503223207 | 42 | 27 | 7.0 | 14.0 | 0.05 | 1.03 | 1.03 | 96 | 996.5 |
| 20260503222703 | 42 | 302 | 8.0 | 15.0 | 0.05 | 1.03 | 1.03 | 96 | 996.0 |